Voltar ao catálogo

CZ-6A DEB

AtivoSSO
NORAD 55542·DEBRIS·🇨🇳 China

Lançado Nov 11, 2022 de Taiyuan Satellite Launch Center

Loading…

Próximas Passagens (próximas 24 horas)

TLE

AtualizadoSource: Space-Track

Época: Sep 14, 2026, 00:06 UTC

1 55542U 22151YQ  26257.00441244  .00001190  00000-0  53182-3 0  9996
2 55542  98.7977 279.2671 0013513 346.2948  13.7862 14.24542937193453

Acompanhe CZ-6A DEB em tempo real com AllMySat

Download on the App Store